Time,TemperatureF,DewpointF,PressureIn,WindDirection,WindDirectionDegrees,WindSpeedMPH,WindSpeedGustMPH,Humidity,HourlyPrecipIn,Conditions,Clouds,dailyrainin,SoftwareType,DateUTC
2013-01-18 00:02:00,12.0,6.0,30.26,SSW,205,1.0,3.0,78,0.00,,,0.00,,2013-01-18 06:02:00,
2013-01-18 00:12:00,12.0,6.0,30.26,SSW,205,1.0,3.0,78,0.00,,,0.00,,2013-01-18 06:12:00,
2013-01-18 00:22:00,13.0,7.0,30.24,SSW,199,3.0,6.0,78,0.00,,,0.00,,2013-01-18 06:22:00,
2013-01-18 00:32:00,13.0,8.0,30.24,South,173,3.0,6.0,79,0.00,,,0.00,,2013-01-18 06:32:00,
2013-01-18 00:43:00,13.0,8.0,30.24,South,173,3.0,6.0,79,0.00,,,0.00,,2013-01-18 06:43:00,
2013-01-18 00:52:00,13.0,8.0,30.23,South,173,3.0,4.0,79,0.00,,,0.00,,2013-01-18 06:52:00,
2013-01-18 01:02:00,13.0,8.0,30.24,South,173,3.0,7.0,79,0.00,,,0.00,,2013-01-18 07:02:00,
2013-01-18 01:12:00,13.0,8.0,30.24,South,173,3.0,7.0,79,0.00,,,0.00,,2013-01-18 07:12:00,
2013-01-18 01:22:00,13.0,8.0,30.23,South,173,4.0,7.0,79,0.00,,,0.00,,2013-01-18 07:22:00,
2013-01-18 01:32:00,13.0,8.0,30.21,SSE,164,5.0,7.0,80,0.00,,,0.00,,2013-01-18 07:32:00,
2013-01-18 01:42:00,13.0,8.0,30.21,SSE,164,5.0,7.0,80,0.00,,,0.00,,2013-01-18 07:42:00,
2013-01-18 01:52:00,13.0,8.0,30.19,SE,144,5.0,9.0,81,0.00,,,0.00,,2013-01-18 07:52:00,
2013-01-18 02:02:00,13.0,9.0,30.19,SE,132,5.0,8.0,82,0.00,,,0.00,,2013-01-18 08:02:00,
2013-01-18 02:12:00,13.0,9.0,30.19,SE,132,5.0,8.0,82,0.00,,,0.00,,2013-01-18 08:12:00,
2013-01-18 02:22:00,14.0,10.0,30.19,ESE,120,6.0,9.0,82,0.00,,,0.00,,2013-01-18 08:22:00,
2013-01-18 02:32:00,14.0,10.0,30.18,ESE,120,8.0,12.0,83,0.00,,,0.00,,2013-01-18 08:32:00,
2013-01-18 02:42:00,14.0,10.0,30.18,ESE,120,8.0,12.0,83,0.00,,,0.00,,2013-01-18 08:42:00,
2013-01-18 02:53:00,14.0,10.0,30.16,ESE,106,8.0,10.0,84,0.00,,,0.00,,2013-01-18 08:53:00,
2013-01-18 03:02:00,14.0,10.0,30.15,ESE,121,7.0,10.0,85,0.00,,,0.00,,2013-01-18 09:02:00,
2013-01-18 03:12:00,14.0,10.0,30.15,ESE,121,7.0,10.0,85,0.00,,,0.00,,2013-01-18 09:12:00,
2013-01-18 03:22:00,13.0,9.0,30.14,ESE,115,8.0,10.0,85,0.00,,,0.00,,2013-01-18 09:22:00,
2013-01-18 03:32:00,14.0,11.0,30.13,ESE,113,9.0,11.0,86,0.00,,,0.00,,2013-01-18 09:32:00,
2013-01-18 03:42:00,14.0,11.0,30.13,ESE,113,9.0,11.0,86,0.00,,,0.00,,2013-01-18 09:42:00,
2013-01-18 03:52:00,14.0,11.0,30.11,ESE,119,9.0,12.0,86,0.00,,,0.00,,2013-01-18 09:52:00,
2013-01-18 04:02:00,14.0,11.0,30.10,ESE,121,10.0,13.0,87,0.00,,,0.00,,2013-01-18 10:02:00,
2013-01-18 04:12:00,14.0,11.0,30.10,ESE,121,10.0,13.0,87,0.00,,,0.00,,2013-01-18 10:12:00,
2013-01-18 04:22:00,14.0,11.0,30.08,ESE,122,11.0,15.0,87,0.00,,,0.00,,2013-01-18 10:22:00,
2013-01-18 04:32:00,14.0,11.0,30.06,SE,133,12.0,17.0,87,0.00,,,0.00,,2013-01-18 10:32:00,
2013-01-18 04:42:00,14.0,11.0,30.06,SE,133,12.0,17.0,87,0.00,,,0.00,,2013-01-18 10:42:00,
2013-01-18 04:52:00,14.0,11.0,30.04,SE,126,12.0,17.0,87,0.00,,,0.00,,2013-01-18 10:52:00,
2013-01-18 05:02:00,14.0,11.0,30.02,SE,127,11.0,16.0,87,0.00,,,0.00,,2013-01-18 11:02:00,
2013-01-18 05:12:00,14.0,11.0,30.02,SE,127,11.0,16.0,87,0.00,,,0.00,,2013-01-18 11:12:00,
2013-01-18 05:23:00,15.0,12.0,30.00,SE,136,11.0,16.0,87,0.00,,,0.00,,2013-01-18 11:23:00,
2013-01-18 05:32:00,15.0,12.0,29.99,SE,141,11.0,18.0,87,0.00,,,0.00,,2013-01-18 11:32:00,
2013-01-18 05:42:00,15.0,12.0,29.99,SE,141,11.0,18.0,87,0.00,,,0.00,,2013-01-18 11:42:00,
2013-01-18 05:53:00,15.0,12.0,29.98,SE,140,10.0,16.0,87,0.00,,,0.00,,2013-01-18 11:53:00,
2013-01-18 06:02:00,16.0,13.0,29.97,SE,140,10.0,17.0,86,0.00,,,0.00,,2013-01-18 12:02:00,
2013-01-18 06:12:00,16.0,13.0,29.97,SE,140,10.0,17.0,86,0.00,,,0.00,,2013-01-18 12:12:00,
2013-01-18 06:22:00,16.0,13.0,29.96,SE,142,9.0,16.0,86,0.00,,,0.00,,2013-01-18 12:22:00,
2013-01-18 06:33:00,16.0,13.0,29.94,SE,146,10.0,14.0,86,0.00,,,0.00,,2013-01-18 12:33:00,
2013-01-18 06:42:00,16.0,13.0,29.94,SE,146,10.0,14.0,86,0.00,,,0.00,,2013-01-18 12:42:00,
2013-01-18 06:53:00,16.0,12.0,29.92,SE,141,9.0,13.0,85,0.00,,,0.00,,2013-01-18 12:53:00,
2013-01-18 07:03:00,17.0,13.0,29.91,SE,145,11.0,18.0,85,0.00,,,0.00,,2013-01-18 13:03:00,
2013-01-18 07:12:00,17.0,13.0,29.91,SE,145,11.0,18.0,85,0.00,,,0.00,,2013-01-18 13:12:00,
2013-01-18 07:23:00,17.0,13.0,29.90,SE,143,9.0,17.0,85,0.00,,,0.00,,2013-01-18 13:23:00,
2013-01-18 07:33:00,17.0,13.0,29.89,SE,145,8.0,12.0,84,0.00,,,0.00,,2013-01-18 13:33:00,
2013-01-18 07:43:00,17.0,13.0,29.89,SE,145,8.0,12.0,84,0.00,,,0.00,,2013-01-18 13:43:00,
2013-01-18 07:53:00,17.0,13.0,29.88,SE,144,7.0,12.0,84,0.00,,,0.00,,2013-01-18 13:53:00,
2013-01-18 08:03:00,17.0,13.0,29.85,SE,142,9.0,16.0,85,0.00,,,0.00,,2013-01-18 14:03:00,
2013-01-18 08:12:00,17.0,13.0,29.85,SE,142,9.0,16.0,85,0.00,,,0.00,,2013-01-18 14:12:00,
2013-01-18 08:23:00,17.0,13.0,29.86,SSE,148,7.0,11.0,85,0.00,,,0.00,,2013-01-18 14:23:00,
2013-01-18 08:33:00,18.0,14.0,29.85,SSE,149,5.0,11.0,85,0.00,,,0.00,,2013-01-18 14:33:00,
2013-01-18 08:42:00,18.0,14.0,29.85,SSE,149,5.0,11.0,85,0.00,,,0.00,,2013-01-18 14:42:00,
2013-01-18 08:53:00,19.0,15.0,29.84,SSE,155,5.0,7.0,85,0.00,,,0.00,,2013-01-18 14:53:00,
2013-01-18 09:03:00,19.0,15.0,29.83,SE,140,6.0,9.0,85,0.00,,,0.00,,2013-01-18 15:03:00,
2013-01-18 09:12:00,19.0,15.0,29.83,SE,140,6.0,9.0,85,0.00,,,0.00,,2013-01-18 15:12:00,
2013-01-18 09:23:00,20.0,16.0,29.82,SE,135,6.0,9.0,86,0.00,,,0.00,,2013-01-18 15:23:00,
2013-01-18 09:33:00,21.0,17.0,29.81,SE,144,6.0,11.0,85,0.00,,,0.00,,2013-01-18 15:33:00,
2013-01-18 09:43:00,21.0,17.0,29.81,SE,144,6.0,11.0,85,0.00,,,0.00,,2013-01-18 15:43:00,
2013-01-18 09:53:00,22.0,18.0,29.82,SSE,162,4.0,7.0,85,0.00,,,0.00,,2013-01-18 15:53:00,
2013-01-18 10:03:00,22.0,18.0,29.82,SSE,149,4.0,7.0,85,0.00,,,0.00,,2013-01-18 16:03:00,
2013-01-18 10:12:00,22.0,18.0,29.82,SSE,149,4.0,7.0,85,0.00,,,0.00,,2013-01-18 16:12:00,
2013-01-18 10:23:00,23.0,19.0,29.82,SSE,153,4.0,6.0,84,0.00,,,0.00,,2013-01-18 16:23:00,
2013-01-18 10:33:00,24.0,20.0,29.81,SSE,156,4.0,7.0,84,0.00,,,0.00,,2013-01-18 16:33:00,
2013-01-18 10:42:00,24.0,20.0,29.81,SSE,156,4.0,7.0,84,0.00,,,0.00,,2013-01-18 16:42:00,
2013-01-18 10:53:00,25.0,21.0,29.80,SSE,154,4.0,7.0,84,0.00,,,0.00,,2013-01-18 16:53:00,
2013-01-18 11:03:00,25.0,21.0,29.78,SSE,153,6.0,9.0,83,0.00,,,0.00,,2013-01-18 17:03:00,
2013-01-18 11:13:00,25.0,21.0,29.78,SSE,153,6.0,9.0,83,0.00,,,0.00,,2013-01-18 17:13:00,
2013-01-18 11:23:00,28.0,23.0,29.77,SSE,151,7.0,11.0,80,0.00,,,0.00,,2013-01-18 17:23:00,
2013-01-18 11:33:00,29.0,24.0,29.76,SSE,159,5.0,9.0,80,0.00,,,0.00,,2013-01-18 17:33:00,
2013-01-18 11:42:00,29.0,24.0,29.76,SSE,159,5.0,9.0,80,0.00,,,0.00,,2013-01-18 17:42:00,
2013-01-18 11:53:00,30.0,24.0,29.75,SSE,161,5.0,9.0,78,0.00,,,0.00,,2013-01-18 17:53:00,
2013-01-18 12:03:00,30.0,24.0,29.74,SSE,160,5.0,9.0,79,0.01,,,0.01,,2013-01-18 18:03:00,
2013-01-18 12:13:00,30.0,24.0,29.74,SSE,160,5.0,9.0,79,0.01,,,0.01,,2013-01-18 18:13:00,
2013-01-18 12:23:00,31.0,25.0,29.74,South,188,4.0,7.0,78,0.02,,,0.02,,2013-01-18 18:23:00,
2013-01-18 12:33:00,33.0,27.0,29.73,SSW,199,4.0,7.0,77,0.03,,,0.03,,2013-01-18 18:33:00,
2013-01-18 12:43:00,33.0,27.0,29.73,SSW,199,4.0,7.0,77,0.03,,,0.03,,2013-01-18 18:43:00,
2013-01-18 12:53:00,33.0,26.0,29.72,SSW,201,4.0,7.0,76,0.03,,,0.03,,2013-01-18 18:53:00,
2013-01-18 13:03:00,34.0,27.0,29.70,SW,224,5.0,9.0,75,0.02,,,0.03,,2013-01-18 19:03:00,
2013-01-18 13:12:00,34.0,27.0,29.70,SW,224,5.0,9.0,75,0.02,,,0.03,,2013-01-18 19:12:00,
2013-01-18 13:23:00,34.0,27.0,29.70,SSW,207,5.0,7.0,74,0.01,,,0.03,,2013-01-18 19:23:00,
2013-01-18 13:33:00,35.0,28.0,29.69,SW,228,3.0,6.0,74,0.00,,,0.03,,2013-01-18 19:33:00,
2013-01-18 13:42:00,35.0,28.0,29.69,SW,228,3.0,6.0,74,0.00,,,0.03,,2013-01-18 19:42:00,
2013-01-18 13:53:00,35.0,28.0,29.70,SW,221,4.0,7.0,74,0.00,,,0.03,,2013-01-18 19:53:00,
2013-01-18 14:03:00,36.0,28.0,29.70,WSW,246,4.0,7.0,73,0.00,,,0.03,,2013-01-18 20:03:00,
2013-01-18 14:12:00,36.0,28.0,29.70,WSW,246,4.0,7.0,73,0.00,,,0.03,,2013-01-18 20:12:00,
2013-01-18 14:23:00,36.0,28.0,29.69,SSW,212,4.0,7.0,72,0.00,,,0.03,,2013-01-18 20:23:00,
2013-01-18 14:33:00,37.0,28.0,29.69,SSW,207,7.0,13.0,71,0.00,,,0.03,,2013-01-18 20:33:00,
2013-01-18 14:42:00,37.0,28.0,29.69,SSW,207,7.0,13.0,71,0.00,,,0.03,,2013-01-18 20:42:00,
2013-01-18 14:53:00,37.0,28.0,29.69,SW,229,7.0,12.0,69,0.00,,,0.03,,2013-01-18 20:53:00,
2013-01-18 15:03:00,37.0,28.0,29.70,SW,229,7.0,12.0,69,0.00,,,0.03,,2013-01-18 21:03:00,
2013-01-18 15:13:00,37.0,28.0,29.70,SW,229,7.0,12.0,69,0.00,,,0.03,,2013-01-18 21:13:00,
2013-01-18 15:23:00,37.0,27.0,29.70,WSW,252,7.0,12.0,68,0.00,,,0.03,,2013-01-18 21:23:00,
2013-01-18 15:33:00,36.0,27.0,29.70,WSW,247,5.0,8.0,70,0.00,,,0.03,,2013-01-18 21:33:00,
2013-01-18 15:42:00,36.0,27.0,29.70,WSW,247,5.0,8.0,70,0.00,,,0.03,,2013-01-18 21:42:00,
2013-01-18 15:53:00,36.0,28.0,29.70,WSW,257,3.0,6.0,71,0.00,,,0.03,,2013-01-18 21:53:00,
2013-01-18 16:03:00,35.0,27.0,29.69,NW,319,3.0,5.0,71,0.00,,,0.03,,2013-01-18 22:03:00,
2013-01-18 16:12:00,35.0,27.0,29.69,NW,319,3.0,5.0,71,0.00,,,0.03,,2013-01-18 22:12:00,
2013-01-18 16:23:00,34.0,26.0,29.68,NNW,333,1.0,3.0,73,0.00,,,0.03,,2013-01-18 22:23:00,
2013-01-18 16:32:00,33.0,26.0,29.70,NNW,343,3.0,4.0,75,0.00,,,0.03,,2013-01-18 22:32:00,
2013-01-18 16:42:00,33.0,26.0,29.70,NNW,343,3.0,4.0,75,0.00,,,0.03,,2013-01-18 22:42:00,
2013-01-18 16:53:00,32.0,25.0,29.71,NW,321,3.0,4.0,75,0.00,,,0.03,,2013-01-18 22:53:00,
2013-01-18 17:03:00,31.0,25.0,29.70,NW,321,3.0,4.0,77,0.00,,,0.03,,2013-01-18 23:03:00,
2013-01-18 17:12:00,31.0,25.0,29.70,NW,321,3.0,4.0,77,0.00,,,0.03,,2013-01-18 23:12:00,
2013-01-18 17:22:00,30.0,24.0,29.71,NW,322,3.0,5.0,79,0.00,,,0.03,,2013-01-18 23:22:00,
2013-01-18 17:33:00,29.0,24.0,29.72,NW,322,3.0,4.0,80,0.00,,,0.03,,2013-01-18 23:33:00,
2013-01-18 17:42:00,29.0,24.0,29.72,NW,322,3.0,4.0,80,0.00,,,0.03,,2013-01-18 23:42:00,
2013-01-18 17:53:00,29.0,24.0,29.73,NW,321,4.0,5.0,80,0.00,,,0.03,,2013-01-18 23:53:00,
2013-01-18 18:02:00,28.0,23.0,29.74,NW,320,4.0,5.0,81,0.00,,,0.03,,2013-01-19 00:02:00,
2013-01-18 18:12:00,28.0,23.0,29.74,NW,320,4.0,5.0,81,0.00,,,0.03,,2013-01-19 00:12:00,
2013-01-18 18:22:00,26.0,22.0,29.73,NW,319,1.0,2.0,83,0.00,,,0.03,,2013-01-19 00:22:00,
2013-01-18 18:33:00,25.0,21.0,29.74,NW,319,0.0,1.0,84,0.00,,,0.03,,2013-01-19 00:33:00,
2013-01-18 18:43:00,25.0,21.0,29.74,NW,319,0.0,1.0,84,0.00,,,0.03,,2013-01-19 00:43:00,
2013-01-18 18:53:00,25.0,21.0,29.74,NW,319,2.0,3.0,86,0.00,,,0.03,,2013-01-19 00:53:00,
2013-01-18 19:02:00,24.0,21.0,29.75,NW,319,2.0,3.0,88,0.00,,,0.03,,2013-01-19 01:02:00,
2013-01-18 19:12:00,24.0,21.0,29.75,NW,319,2.0,3.0,88,0.00,,,0.03,,2013-01-19 01:12:00,
2013-01-18 19:22:00,23.0,20.0,29.75,NW,319,1.0,3.0,87,0.00,,,0.03,,2013-01-19 01:22:00,
2013-01-18 19:32:00,23.0,20.0,29.75,WNW,294,2.0,4.0,87,0.00,,,0.03,,2013-01-19 01:32:00,
2013-01-18 19:42:00,23.0,20.0,29.75,WNW,294,2.0,4.0,87,0.00,,,0.03,,2013-01-19 01:42:00,
2013-01-18 19:53:00,21.0,18.0,29.75,West,280,1.0,3.0,88,0.00,,,0.03,,2013-01-19 01:53:00,
2013-01-18 20:02:00,21.0,18.0,29.76,West,280,1.0,3.0,89,0.00,,,0.03,,2013-01-19 02:02:00,
2013-01-18 20:12:00,21.0,18.0,29.76,West,280,1.0,3.0,89,0.00,,,0.03,,2013-01-19 02:12:00,
2013-01-18 20:22:00,20.0,17.0,29.75,West,280,1.0,2.0,89,0.00,,,0.03,,2013-01-19 02:22:00,
2013-01-18 20:33:00,19.0,16.0,29.74,West,280,2.0,3.0,89,0.00,,,0.03,,2013-01-19 02:33:00,
2013-01-18 20:42:00,19.0,16.0,29.74,West,280,2.0,3.0,89,0.00,,,0.03,,2013-01-19 02:42:00,
2013-01-18 20:53:00,20.0,18.0,29.74,West,280,2.0,3.0,90,0.00,,,0.03,,2013-01-19 02:53:00,
2013-01-18 21:03:00,19.0,16.0,29.75,West,280,0.0,2.0,89,0.00,,,0.03,,2013-01-19 03:03:00,
2013-01-18 21:12:00,19.0,16.0,29.75,West,280,0.0,2.0,89,0.00,,,0.03,,2013-01-19 03:12:00,
2013-01-18 21:22:00,19.0,16.0,29.75,West,280,2.0,3.0,89,0.00,,,0.03,,2013-01-19 03:22:00,
2013-01-18 21:33:00,20.0,18.0,29.74,West,263,3.0,4.0,90,0.00,,,0.03,,2013-01-19 03:33:00,
2013-01-18 21:43:00,20.0,18.0,29.74,West,263,3.0,4.0,90,0.00,,,0.03,,2013-01-19 03:43:00,
2013-01-18 21:52:00,21.0,19.0,29.74,WSW,251,3.0,6.0,91,0.00,,,0.03,,2013-01-19 03:52:00,
2013-01-18 22:02:00,23.0,21.0,29.75,SSW,207,4.0,7.0,91,0.00,,,0.03,,2013-01-19 04:02:00,
2013-01-18 22:12:00,23.0,21.0,29.75,SSW,207,4.0,7.0,91,0.00,,,0.03,,2013-01-19 04:12:00,
2013-01-18 22:22:00,24.0,22.0,29.74,SSW,206,1.0,3.0,90,0.00,,,0.03,,2013-01-19 04:22:00,
2013-01-18 22:32:00,23.0,20.0,29.74,North,0,0.0,0.0,89,0.00,,,0.03,,2013-01-19 04:32:00,
2013-01-18 22:42:00,23.0,20.0,29.74,North,0,0.0,0.0,89,0.00,,,0.03,,2013-01-19 04:42:00,
2013-01-18 22:53:00,23.0,21.0,29.75,SSW,206,3.0,4.0,90,0.00,,,0.03,,2013-01-19 04:53:00,
2013-01-18 23:03:00,25.0,22.0,29.76,WSW,246,5.0,10.0,90,0.00,,,0.03,,2013-01-19 05:03:00,
2013-01-18 23:12:00,25.0,22.0,29.76,WSW,246,5.0,10.0,90,0.00,,,0.03,,2013-01-19 05:12:00,
2013-01-18 23:23:00,26.0,23.0,29.76,WSW,253,4.0,7.0,89,0.00,,,0.03,,2013-01-19 05:23:00,
2013-01-18 23:32:00,26.0,23.0,29.75,WSW,253,3.0,5.0,88,0.00,,,0.03,,2013-01-19 05:32:00,
2013-01-18 23:42:00,26.0,23.0,29.75,WSW,253,3.0,5.0,88,0.00,,,0.03,,2013-01-19 05:42:00,
2013-01-18 23:53:00,26.0,23.0,29.75,WSW,252,1.0,4.0,87,0.00,,,0.03,,2013-01-19 05:53:00,